This is the latest recevied weather packets stored in our database for station/object K7CTM. If no packets are shown the sender has not sent any weather packets the latest 1 day(s).
| Time | Temp. | Humidity | Pressure | Rain* | Wind** | Luminosity | Snow |
|---|---|---|---|---|---|---|---|
| 1836274656 | 17.78° C | 54% | 1027.9 hPa | 0 mm | 1.34 m/s, 141° | 0 W/m² | - |
| 1836274509 | 17.78° C | 53% | 1028.2 hPa | 0 mm | 0.89 m/s, 142° | 0 W/m² | - |
| 1836274354 | 17.78° C | 53% | 1027.9 hPa | 0 mm | 1.34 m/s, 127° | 0 W/m² | - |
| 1836274208 | 17.78° C | 53% | 1027.9 hPa | 0 mm | 1.34 m/s, 122° | 0 W/m² | - |
| 1836274053 | 18.33° C | 53% | 1028 hPa | 0 mm | 1.79 m/s, 137° | 0 W/m² | - |
| 1778069358 | -3.89° C | 87% | 1028.6 hPa | 0 mm | 0.89 m/s, 240° | 9 W/m² | - |
| 1778069055 | -3.89° C | 87% | 1028.6 hPa | 0 mm | 0.89 m/s, 238° | 6 W/m² | - |
| 1778068752 | -3.89° C | 87% | 1028.6 hPa | 0 mm | 1.34 m/s, 246° | 4 W/m² | - |
| 1778068450 | -3.89° C | 86% | 1028.7 hPa | 0 mm | 0.89 m/s, 249° | 2 W/m² | - |
| 1778068148 | -3.33° C | 86% | 1028.5 hPa | 0 mm | 0.89 m/s, 250° | 1 W/m² | - |
| 1778067845 | -3.89° C | 86% | 1028.6 hPa | 0 mm | 0.89 m/s, 253° | 1 W/m² | - |
| 1778067544 | -3.33° C | 85% | 1028.6 hPa | 0 mm | 1.79 m/s, 256° | 0 W/m² | - |
| 1778067241 | -3.33° C | 85% | 1028.5 hPa | 0 mm | 1.79 m/s, 265° | 0 W/m² | - |
| 1778066938 | -3.33° C | 86% | 1028.6 hPa | 0 mm | 1.79 m/s, 253° | 0 W/m² | - |
| 1778066635 | -3.89° C | 86% | 1028.5 hPa | 0 mm | 1.79 m/s, 252° | 0 W/m² | - |
| 1778066332 | -3.89° C | 87% | 1028.5 hPa | 0 mm | 1.79 m/s, 245° | 0 W/m² | - |
| 1778066030 | -3.89° C | 86% | 1028.5 hPa | 0 mm | 1.34 m/s, 228° | 0 W/m² | - |
| 1778065727 | -3.33° C | 86% | 1028.6 hPa | 0 mm | 1.79 m/s, 242° | 0 W/m² | - |
| 1778065424 | -3.33° C | 85% | 1028.3 hPa | 0 mm | 1.34 m/s, 236° | 0 W/m² | - |
| 1778065121 | -3.33° C | 86% | 1028.5 hPa | 0 mm | 1.79 m/s, 238° | 0 W/m² | - |
| 1778064818 | -3.33° C | 85% | 1028.6 hPa | 0 mm | 1.79 m/s, 235° | 0 W/m² | - |
| 1778064516 | -3.33° C | 85% | 1028.5 hPa | 0 mm | 1.79 m/s, 230° | 0 W/m² | - |
| 1778064213 | -3.33° C | 85% | 1028.1 hPa | 0 mm | 1.79 m/s, 247° | 0 W/m² | - |
| 1778063910 | -3.33° C | 84% | 1028.2 hPa | 0 mm | 1.34 m/s, 239° | 0 W/m² | - |
| 1778063607 | -3.33° C | 84% | 1028.5 hPa | 0 mm | 1.79 m/s, 241° | 0 W/m² | - |
* Rain latest hour (hover to see other rain measurements)
** Current wind speed in m/s (hover to see current wind gust speed)